Regional Weather Roundup
Issued by NWS Sioux Falls, SD

Home | Current Version | Previous Version | Text Only | Print | Product List | Glossary On
Versions: 1 2 3 4 5 6 7 8 9 10 11 12 13 14 15 16 17 18 19 20 21 22 23 24 25 26 27 28 29 30 31 32 33 34 35 36 37 38 39 40 41 42 43 44 45 46 47 48 49 50
000
ASUS43 KFSD 240210
RWRFSD

WEATHER ROUNDUP FOR SE SOUTH DAKOTA/SW MINNESOTA/NW IOWA
NATIONAL WEATHER SERVICE SIOUX FALLS SD
900 PM CDT WED AUG 23 2017

NOTE: "FAIR" INDICATES FEW OR NO CLOUDS BELOW 12,000 FEET WITH NO
SIGNIFICANT WEATHER AND OR OBSTRUCTIONS TO VISIBILITY.


SDZ038>040-050-052>070-240300-
SOUTHEAST SOUTH DAKOTA

CITY           SKY/WX    TMP DP  RH WIND       PRES   REMARKS
BROOKINGS      MOCLDY    69  60  73 SE10      30.00S
CHAMBERLAIN    CLEAR     75  66  72 E8        29.88S
HURON          MOCLDY    71  62  73 SE10      29.93R
MADISON        MOCLDY    64  64 100 SE8       29.99S
MITCHELL       CLEAR     72  62  71 SE9       29.93S
SIOUX FALLS    MOCLDY    70  62  76 SE9       30.00S
WINNER         FAIR      79  63  57 S14       29.88S
YANKTON        FAIR      71  62  73 SE9       29.98R
$$

MNZ071-072-080-081-089-090-097-098-240300-
SOUTHWEST MINNESOTA

CITY           SKY/WX    TMP DP  RH WIND       PRES   REMARKS
FAIRMONT       CLOUDY    67  60  78 CALM      30.04R
JACKSON        MOCLDY    64  59  82 CALM      30.05R
LUVERNE        MOCLDY    64  59  82 S6        30.03S
MARSHALL       NOT AVBL
MONTEVIDEO     FAIR      63  55  77 SE3       30.01S
PIPESTONE      MOCLDY    70  61  73 S5        30.02S
REDWOOD FALLS  FAIR      66  54  65 SE6       30.01S
TRACY          MOCLDY    67  60  78 S5        30.02S
WINDOM         FAIR      66  57  72 E3        30.04R
WORTHINGTON    CLOUDY    67  60  78 S5        30.04S HAZE
$$

IAZ001>003-012>014-020>022-031-032-NEZ013-014-SDZ071-240300-
NORTHWEST IOWA

CITY           SKY/WX    TMP DP  RH WIND       PRES   REMARKS
CHEROKEE       CLOUDY    69  60  73 E3        30.03R
DENISON        MOCLDY    68  59  73 S9        30.04S
ESTHERVILLE    FAIR      63  60  90 SE3       30.03R
ORANGE CITY    CLOUDY    72  63  73 CALM      30.04R
SHELDON        HVY RAIN  66  64  94 S9        30.02R
SIOUX CITY     CLOUDY    70  62  76 S8        29.99S
SPENCER        LGT RAIN  66  62  87 S5        30.04R
STORM LAKE     FAIR      66  59  77 SE6       30.03S
$$

ABBREVIATIONS USED IN REMARKS
   TC - TEMPERATURE IN CELSIUS
  WCI - WIND CHILL INDEX
   HX - HEAT INDEX
  VSB - VISIBILITY





USA.gov is the U.S. government's official web portal to all federal, state and local government web resources and services.